SCP
0 0 0 0 0 0 0 0 0 0 0 0 0 0 0 0 0 0 0 0 0 0 0 0 0 0 0 0 1 1 1 1 1 1 1 1 1 1
0 0 0 0 0 0 0 0 0 0 0 0 0 0 0 0 0 0 0 0 0 0 0 0 0 0 0 0 0 1 1 1 1 1 1 1 1 1
0 0 0 0 0 0 0 0 0 0 0 0 0 0 0 0 0 0 0 0 0 0 0 0 0 0 0 0 0 0 0 1 1 1 1 1 1 1
0 0 0 0 0 0 0 0 0 0 0 0 0 0 0 0 0 0 0 0 0 0 0 0 0 0 0 0 0 0 0 0 0 1 1 1 1 1
0 0 0 0 0 0 0 0 0 0 0 0 0 0 0 0 0 0 0 0 0 0 0 0 0 0 0 0 0 0 0 0 0 0 0 0 0 0
0 0 0 0 0 0 0 0 0 0 0 0 0 0 0 0 0 0 0 0 0 0 0 0 0 0 0 0 0 0 0 0 0 0 0 0 0 0
0 0 0 0 0 0 0 0 0 0 0 0 0 0 0 0 0 0 0 0 0 0 0 0 0 0 0 0 0 0 0 0 0 0 0 0 0 0
0 0 0 0 0 0 0 0 0 0 0 0 0 0 0 0 0 0 0 0 0 0 0 0 0 0 0 0 0 0 0 0 0 0 0 0 0 0
0 0 0 0 0 0 0 0 0 0 0 0 0 0 0 0 0 0 0 0 0 0 0 0 0 0 0 0 0 0 0 0 0 0 0 0 0 0
0 0 0 0 0 0 0 0 0 0 0 0 0 0 0 0 0 0 0 0 0 0 0 0 0 0 0 0 0 0 0 0 0 0 0 0 0 0
0 0 0 0 0 0 0 0 0 0 0 0 0 0 0 0 0 0 0 0 0 0 0 0 0 0 0 0 0 0 0 0 0 0 0 0 0 0
0 0 0 0 0 0 0 0 0 0 0 0 0 0 0 0 0 0 0 0 0 0 0 0 0 0 0 0 0 0 0 0 0 0 0 0 0 0
0 0 0 0 0 0 0 0 0 0 0 0 0 0 0 0 0 0 0 0 0 0 0 0 0 0 0 0 0 0 0 0 0 0 0 0 0 0
0 0 0 0 0 0 0 0 0 0 0 0 0 0 0 0 0 0 0 0 0 0 0 0 0 0 0 0 0 0 0 0 0 0 0 0 0 0
0 0 0 0 0 0 0 0 0 0 0 0 0 0 0 0 0 0 0 0 0 0 0 0 0 0 0 0 0 0 0 0 0 0 0 0 0 0
0 0 0 0 0 0 0 0 0 0 0 0 0 0 0 0 0 0 0 0 0 0 0 0 0 0 0 0 0 0 0 0 0 0 0 0 0 0
0 0 0 0 0 0 0 0 0 0 0 0 0 0 0 0 0 0 0 0 0 0 0 0 0 0 0 0 0 0 0 0 0 0 0 0 0 0
0 0 0 0 0 0 0 0 0 0 0 0 0 0 0 0 0 0 0 0 0 0 0 0 0 0 0 0 0 0 0 0 0 0 0 0 0 0
0 0 0 0 0 0 0 0 0 0 0 0 0 0 0 0 0 0 0 0 0 0 0 0 0 0 0 0 0 0 0 0 0 0 0 0 0 0
0 0 0 0 0 0 0 0 0 0 0 0 0 0 0 0 0 0 0 0 0 0 0 0 0 0 0 0 0 0 0 0 0 0 0 0 0 0
0 0 0 0 0 0 0 0 0 0 0 0 0 0 0 0 0 0 0 0 0 0 0 0 0 0 0 0 0 0 0 0 0 0 0 0 0 0
0 0 0 0 0 0 0 0 0 0 0 0 0 0 0 0 0 0 0 0 0 0 0 0 0 0 0 0 0 0 0 0 0 0 0 0 0 0
0 0 0 0 0 0 0 0 0 0 0 0 0 0 0 0 0 0 0 0 0 0 0 0 0 0 0 0 0 0 0 0 0 0 0 0 0 0
Wind_Speed
4 4 4 3 3 3 3 3 4 5 5 4 3 3 3 3 4 5 5 6 7 8 7 7 7 7 8 8 9 9 10 8 8 7 7 8 8 9
3 4 4 3 3 3 3 3 4 5 5 3 3 3 3 3 5 5 6 7 7 7 7 7 7 7 8 8 9 10 10 8 8 8 8 8 9 9
4 5 5 5 4 3 3 3 4 4 6 4 3 3 5 5 4 5 5 5 5 6 7 8 8 7 8 9 10 10 10 9 9 9 9 9 9 10
4 5 5 4 5 4 4 4 4 4 5 6 4 4 5 5 5 5 5 4 5 6 7 7 8 8 8 9 9 9 10 9 9 9 9 9 10 10
5 5 5 5 5 4 5 4 4 4 4 4 5 4 4 4 5 5 6 5 5 5 7 7 7 8 8 8 9 9 10 10 9 9 8 8 9 10
5 5 5 5 5 5 5 5 4 4 4 4 5 4 4 4 4 4 5 4 4 4 6 6 7 8 8 8 9 9 10 10 10 9 9 9 10 10
5 5 5 6 6 6 5 5 5 5 5 5 5 5 4 3 4 4 5 5 5 4 5 5 5 5 5 7 8 9 10 10 10 10 10 10 10 10
5 4 4 5 6 7 7 8 7 6 6 5 5 6 6 6 5 4 4 5 5 3 5 5 4 5 5 4 7 10 10 10 10 11 10 10 10 10
5 4 4 3 5 5 6 7 7 8 9 7 7 7 7 6 5 6 6 6 6 4 5 6 5 6 5 5 9 9 10 10 10 11 11 10 11 11
5 5 5 5 4 5 5 6 6 6 7 7 7 8 7 6 6 7 7 6 6 4 4 5 5 5 5 5 8 9 10 10 10 10 10 11 11 11
4 4 5 5 6 6 6 6 6 5 6 8 9 9 9 9 7 5 5 5 6 5 4 4 4 5 5 6 6 8 9 9 9 10 10 10 10 11
4 4 5 6 7 7 6 5 6 6 5 5 6 6 6 6 7 6 5 6 5 5 3 3 4 4 5 4 4 4 5 7 9 10 10 10 10 7
4 3 4 6 7 8 7 5 7 6 5 5 5 5 4 4 4 5 5 6 6 6 3 3 4 4 5 5 4 5 5 4 5 6 7 9 10 8
4 4 4 7 8 8 6 6 7 6 4 4 4 5 4 4 4 4 5 6 6 7 6 5 5 5 5 6 6 4 4 4 4 5 5 7 8 9
4 6 7 8 8 6 6 6 5 4 4 4 5 5 5 5 4 4 4 4 5 5 5 6 6 5 6 7 6 5 5 5 4 4 5 5 5 5
4 4 6 6 6 5 5 4 4 4 4 5 5 5 4 4 4 4 4 3 4 4 4 5 6 6 6 7 6 6 5 5 4 5 5 5 5 5
3 3 3 3 3 3 3 3 3 3 4 4 4 4 4 4 4 4 3 4 5 5 4 3 4 5 7 6 6 7 6 5 5 5 5 6 6 6
3 3 4 4 4 4 4 4 4 4 4 4 4 4 4 4 4 4 4 4 5 5 5 4 3 4 4 5 7 7 6 5 5 5 5 6 7 6
3 4 4 4 4 4 4 5 5 4 4 4 5 5 4 4 4 4 4 5 5 5 5 4 4 4 6 7 4 6 6 5 5 5 5 6 7 7
4 4 5 5 5 5 5 5 5 4 4 4 5 5 5 5 5 5 5 6 6 5 5 5 5 5 6 6 6 5 7 6 5 6 6 6 7 8
5 5 5 5 5 5 5 5 5 5 5 5 5 5 5 5 5 6 6 7 6 6 6 6 5 5 5 4 5 6 5 7 8 6 6 6 6 6
5 5 5 5 5 5 5 5 5 5 5 5 5 5 5 5 6 7 6 6 6 6 7 6 4 4 4 6 8 7 7 5 6 10 10 10 6 6
5 5 5 5 5 5 5 6 6 6 5 5 5 5 5 5 6 6 6 6 6 6 6 6 4 4 5 6 7 7 8 7 5 5 6 8 12 14
Wind_Direction
222 225 229 230 236 243 242 241 248 261 260 251 248 250 270 276 288 280 281 289 289 287 285 285 289 291 292 293 296 297 298 291 296 291 288 284 280 278
222 224 230 233 232 237 241 246 250 257 262 266 272 286 276 279 286 283 284 286 282 284 282 282 284 286 289 292 295 296 297 288 294 289 288 286 280 276
229 228 234 236 237 237 237 240 244 249 257 272 279 286 276 273 279 282 288 287 283 283 278 277 278 278 285 290 290 293 295 289 293 289 287 287 286 280
235 232 233 233 237 240 239 241 245 250 256 267 276 279 278 279 281 281 285 287 286 289 282 278 273 276 280 283 285 287 291 289 292 289 287 286 286 290
233 234 235 232 237 241 240 242 245 251 255 262 274 282 282 283 286 284 281 279 284 285 278 274 277 279 278 280 283 285 288 286 286 283 282 286 289 289
236 236 237 236 240 243 243 243 243 245 248 254 263 272 276 284 280 284 285 280 282 283 274 277 278 273 273 276 280 282 283 280 283 282 280 282 285 288
240 239 240 245 251 252 250 247 245 245 246 252 261 268 270 278 272 278 281 289 287 280 280 279 276 270 268 271 273 277 278 278 281 282 280 279 282 286
245 245 244 242 247 254 260 260 254 248 248 251 256 260 267 272 277 273 278 288 283 276 279 281 277 272 275 272 274 274 273 277 279 280 279 282 283 284
247 247 251 251 250 251 257 261 262 260 254 253 256 260 267 270 272 271 268 272 275 287 282 275 274 271 278 277 279 276 278 278 279 279 279 282 285 282
248 247 247 250 252 257 257 256 258 259 259 256 257 263 268 270 263 264 270 276 283 277 267 272 279 278 280 274 276 275 279 280 279 279 283 283 283 283
256 253 252 253 257 262 260 260 266 268 271 267 269 271 272 271 267 264 262 264 274 272 261 266 279 289 283 271 270 274 277 276 276 279 280 282 284 284
262 257 254 261 267 265 259 257 260 268 276 281 278 277 272 267 262 254 252 256 269 270 249 252 273 289 284 271 271 276 274 277 276 277 279 279 284 282
262 260 260 266 270 267 267 263 265 277 277 274 274 273 272 265 260 262 260 255 257 259 257 265 272 275 272 282 282 276 274 279 279 273 277 283 283 280
260 262 266 270 271 271 268 272 278 281 273 269 266 265 267 267 269 271 269 265 265 265 261 260 261 264 267 273 275 276 276 281 281 279 281 287 287 284
264 266 271 270 271 268 266 271 271 263 259 259 260 264 268 270 273 273 273 269 272 269 259 257 257 259 257 260 271 273 279 278 267 269 275 275 278 280
266 267 268 266 266 270 272 264 259 258 259 260 265 271 272 266 264 266 269 272 273 273 264 258 257 253 256 262 263 269 267 267 265 272 274 275 274 269
275 271 261 261 259 266 271 269 266 263 262 264 265 268 266 264 267 268 265 267 262 268 275 270 266 265 261 259 260 261 263 268 267 270 270 275 272 266
272 258 257 257 259 262 264 265 263 260 262 264 261 261 261 262 268 268 268 261 260 264 268 273 276 278 268 258 240 255 260 265 274 271 270 272 275 271
248 252 254 256 259 260 260 259 260 262 263 258 258 260 259 260 261 262 260 262 259 261 265 266 259 257 266 274 262 240 257 267 272 271 267 267 274 279
249 251 253 255 257 256 255 256 258 258 255 255 256 257 254 255 256 255 255 259 261 263 264 260 253 249 256 275 284 276 256 255 261 271 280 282 278 280
251 252 252 253 256 257 258 258 256 254 253 253 252 252 250 250 254 255 254 256 259 260 259 261 263 266 273 274 268 269 265 254 258 264 276 281 285 281
256 255 254 254 254 254 255 255 254 254 252 250 251 251 250 248 250 253 252 255 256 259 265 269 274 265 252 251 261 273 284 283 275 276 269 260 259 264
257 257 258 257 255 254 252 251 252 252 251 250 250 249 249 250 251 252 253 251 254 258 265 270 269 262 257 256 263 271 278 284 287 288 279 274 270 269